Time,TemperatureF,DewpointF,PressureIn,WindDirection,WindDirectionDegrees,WindSpeedMPH,WindSpeedGustMPH,Humidity,HourlyPrecipIn,Conditions,Clouds,dailyrainin,SolarRadiationWatts/m^2,SoftwareType,DateUTC
2013-08-21 00:02:00,73.0,61.0,-100.00,SSE,150,5.0,9.0,67,0.00,,,0.00,0.000000,,2013-08-21 05:02:00,
2013-08-21 00:43:00,72.0,61.0,-100.00,SE,140,5.0,10.0,68,0.00,,,0.00,0.000000,,2013-08-21 05:43:00,
2013-08-21 00:52:00,72.0,61.0,-100.00,SE,140,5.0,10.0,68,0.00,,,0.00,0.000000,,2013-08-21 05:52:00,
2013-08-21 01:02:00,72.0,61.0,-100.00,SE,140,5.0,10.0,68,0.00,,,0.00,0.000000,,2013-08-21 06:02:00,
2013-08-21 01:42:00,72.0,61.0,-100.00,SE,141,6.0,9.0,69,0.00,,,0.00,0.000000,,2013-08-21 06:42:00,
2013-08-21 01:52:00,72.0,61.0,-100.00,SE,141,6.0,9.0,69,0.00,,,0.00,0.000000,,2013-08-21 06:52:00,
2013-08-21 02:01:00,72.0,61.0,-100.00,SE,141,6.0,9.0,69,0.00,,,0.00,0.000000,,2013-08-21 07:01:00,
2013-08-21 02:42:00,71.0,61.0,-100.00,SE,140,7.0,11.0,71,0.00,,,0.00,0.000000,,2013-08-21 07:42:00,
2013-08-21 02:53:00,71.0,61.0,-100.00,SE,140,7.0,11.0,71,0.00,,,0.00,0.000000,,2013-08-21 07:53:00,
2013-08-21 03:03:00,71.0,61.0,-100.00,SE,140,7.0,11.0,71,0.00,,,0.00,0.000000,,2013-08-21 08:03:00,
2013-08-21 03:43:00,70.0,61.0,-100.00,SE,143,6.0,11.0,72,0.00,,,0.00,0.000000,,2013-08-21 08:43:00,
2013-08-21 03:53:00,70.0,61.0,-100.00,SE,143,6.0,11.0,72,0.00,,,0.00,0.000000,,2013-08-21 08:53:00,
2013-08-21 04:01:00,70.0,61.0,-100.00,SE,143,6.0,11.0,72,0.00,,,0.00,0.000000,,2013-08-21 09:01:00,
2013-08-21 04:43:00,70.0,62.0,-100.00,SE,144,6.0,12.0,75,0.00,,,0.00,0.000000,,2013-08-21 09:43:00,
2013-08-21 04:54:00,70.0,62.0,-100.00,SE,144,6.0,12.0,75,0.00,,,0.00,0.000000,,2013-08-21 09:54:00,
2013-08-21 05:03:00,70.0,62.0,-100.00,SE,144,6.0,12.0,75,0.00,,,0.00,0.000000,,2013-08-21 10:03:00,
2013-08-21 05:43:00,70.0,62.0,-100.00,SSE,147,5.0,7.0,75,0.00,,,0.00,0.000000,,2013-08-21 10:43:00,
2013-08-21 05:52:00,70.0,62.0,-100.00,SSE,147,5.0,7.0,75,0.00,,,0.00,0.000000,,2013-08-21 10:52:00,
2013-08-21 06:03:00,70.0,62.0,-100.00,SSE,147,5.0,7.0,75,0.00,,,0.00,0.000000,,2013-08-21 11:03:00,
2013-08-21 06:42:00,69.0,61.0,-100.00,SE,143,6.0,9.0,77,0.00,,,0.00,0.000000,,2013-08-21 11:42:00,
2013-08-21 06:53:00,69.0,61.0,-100.00,SE,143,6.0,9.0,77,0.00,,,0.00,0.000000,,2013-08-21 11:53:00,
2013-08-21 07:01:00,69.0,61.0,-100.00,SE,143,6.0,9.0,77,0.00,,,0.00,0.000000,,2013-08-21 12:01:00,
2013-08-21 07:42:00,70.0,63.0,-100.00,SE,146,4.0,7.0,79,0.00,,,0.00,9.000000,,2013-08-21 12:42:00,
2013-08-21 07:52:00,70.0,63.0,-100.00,SE,146,4.0,7.0,79,0.00,,,0.00,9.000000,,2013-08-21 12:52:00,
2013-08-21 08:02:00,70.0,63.0,-100.00,SE,146,4.0,7.0,79,0.00,,,0.00,9.000000,,2013-08-21 13:02:00,
2013-08-21 08:42:00,73.0,64.0,-100.00,SE,138,6.0,8.0,74,0.00,,,0.00,129.000000,,2013-08-21 13:42:00,
2013-08-21 08:52:00,73.0,64.0,-100.00,SE,138,6.0,8.0,74,0.00,,,0.00,129.000000,,2013-08-21 13:52:00,
2013-08-21 09:02:00,73.0,64.0,-100.00,SE,138,6.0,8.0,74,0.00,,,0.00,129.000000,,2013-08-21 14:02:00,
2013-08-21 09:42:00,75.0,65.0,-100.00,SSE,155,7.0,9.0,72,0.00,,,0.00,345.000000,,2013-08-21 14:42:00,
2013-08-21 09:52:00,75.0,65.0,-100.00,SSE,155,7.0,9.0,72,0.00,,,0.00,345.000000,,2013-08-21 14:52:00,
2013-08-21 10:01:00,75.0,65.0,-100.00,SSE,155,7.0,9.0,72,0.00,,,0.00,345.000000,,2013-08-21 15:01:00,
2013-08-21 10:43:00,78.0,67.0,-100.00,South,183,5.0,9.0,68,0.00,,,0.00,577.000000,,2013-08-21 15:43:00,
2013-08-21 10:55:00,78.0,67.0,-100.00,South,183,5.0,9.0,68,0.00,,,0.00,577.000000,,2013-08-21 15:55:00,
2013-08-21 11:04:00,78.0,67.0,-100.00,South,183,5.0,9.0,68,0.00,,,0.00,577.000000,,2013-08-21 16:04:00,
2013-08-21 11:43:00,79.0,65.0,-100.00,SW,226,6.0,11.0,63,0.00,,,0.00,786.000000,,2013-08-21 16:43:00,
2013-08-21 11:53:00,79.0,65.0,-100.00,SW,226,6.0,11.0,63,0.00,,,0.00,786.000000,,2013-08-21 16:53:00,
2013-08-21 12:04:00,79.0,65.0,-100.00,SW,226,6.0,11.0,63,0.00,,,0.00,786.000000,,2013-08-21 17:04:00,
2013-08-21 12:43:00,80.0,65.0,-100.00,SW,214,7.0,11.0,61,0.00,,,0.00,947.000000,,2013-08-21 17:43:00,
2013-08-21 12:53:00,80.0,65.0,-100.00,SW,214,7.0,11.0,61,0.00,,,0.00,947.000000,,2013-08-21 17:53:00,
2013-08-21 13:02:00,80.0,65.0,-100.00,SW,214,7.0,11.0,61,0.00,,,0.00,947.000000,,2013-08-21 18:02:00,
2013-08-21 13:42:00,81.0,64.0,-100.00,SW,220,6.0,11.0,57,0.00,,,0.00,1045.000000,,2013-08-21 18:42:00,
2013-08-21 13:52:00,81.0,64.0,-100.00,SW,220,6.0,11.0,57,0.00,,,0.00,1045.000000,,2013-08-21 18:52:00,
2013-08-21 14:01:00,81.0,64.0,-100.00,SW,220,6.0,11.0,57,0.00,,,0.00,1045.000000,,2013-08-21 19:01:00,
2013-08-21 14:42:00,83.0,65.0,-100.00,SSW,199,6.0,10.0,54,0.00,,,0.00,1076.000000,,2013-08-21 19:42:00,
2013-08-21 14:52:00,83.0,65.0,-100.00,SSW,199,6.0,10.0,54,0.00,,,0.00,1076.000000,,2013-08-21 19:52:00,
2013-08-21 15:03:00,83.0,65.0,-100.00,SSW,199,6.0,10.0,54,0.00,,,0.00,1076.000000,,2013-08-21 20:03:00,
2013-08-21 15:42:00,85.0,62.0,-100.00,SE,143,3.0,9.0,47,0.00,,,0.00,1050.000000,,2013-08-21 20:42:00,
2013-08-21 15:52:00,85.0,62.0,-100.00,SE,143,3.0,9.0,47,0.00,,,0.00,1050.000000,,2013-08-21 20:52:00,
2013-08-21 16:02:00,85.0,62.0,-100.00,SE,143,3.0,9.0,47,0.00,,,0.00,1050.000000,,2013-08-21 21:02:00,
2013-08-21 16:45:00,84.0,61.0,-100.00,ESE,121,4.0,9.0,46,0.00,,,0.00,915.000000,,2013-08-21 21:45:00,
2013-08-21 16:55:00,84.0,61.0,-100.00,ESE,121,4.0,9.0,46,0.00,,,0.00,915.000000,,2013-08-21 21:55:00,
2013-08-21 17:04:00,84.0,61.0,-100.00,ESE,121,4.0,9.0,46,0.00,,,0.00,915.000000,,2013-08-21 22:04:00,
2013-08-21 17:44:00,85.0,62.0,-100.00,East,94,4.0,6.0,46,0.00,,,0.00,736.000000,,2013-08-21 22:44:00,
2013-08-21 17:53:00,85.0,62.0,-100.00,East,94,4.0,6.0,46,0.00,,,0.00,736.000000,,2013-08-21 22:53:00,
2013-08-21 18:04:00,85.0,62.0,-100.00,East,94,4.0,6.0,46,0.00,,,0.00,736.000000,,2013-08-21 23:04:00,
2013-08-21 18:43:00,84.0,62.0,-100.00,South,190,3.0,7.0,48,0.00,,,0.00,509.000000,,2013-08-21 23:43:00,
2013-08-21 18:53:00,84.0,62.0,-100.00,South,190,3.0,7.0,48,0.00,,,0.00,509.000000,,2013-08-21 23:53:00,
2013-08-21 19:02:00,84.0,62.0,-100.00,South,190,3.0,7.0,48,0.00,,,0.00,509.000000,,2013-08-22 00:02:00,
2013-08-21 19:42:00,83.0,65.0,-100.00,SSE,165,1.0,5.0,55,0.00,,,0.00,258.000000,,2013-08-22 00:42:00,
2013-08-21 19:52:00,83.0,65.0,-100.00,SSE,165,1.0,5.0,55,0.00,,,0.00,258.000000,,2013-08-22 00:52:00,
2013-08-21 20:02:00,83.0,65.0,-100.00,SSE,165,1.0,5.0,55,0.00,,,0.00,258.000000,,2013-08-22 01:02:00,
2013-08-21 20:42:00,74.0,62.0,-100.00,ESE,117,2.0,3.0,66,0.00,,,0.00,46.000000,,2013-08-22 01:42:00,
2013-08-21 20:52:00,74.0,62.0,-100.00,ESE,117,2.0,3.0,66,0.00,,,0.00,46.000000,,2013-08-22 01:52:00,
2013-08-21 21:03:00,74.0,62.0,-100.00,ESE,117,2.0,3.0,66,0.00,,,0.00,46.000000,,2013-08-22 02:03:00,
2013-08-21 21:52:00,75.0,61.0,-100.00,SE,146,3.0,4.0,62,0.00,,,0.00,0.000000,,2013-08-22 02:52:00,
2013-08-21 22:02:00,75.0,61.0,-100.00,SE,146,3.0,4.0,62,0.00,,,0.00,0.000000,,2013-08-22 03:02:00,
2013-08-21 22:45:00,74.0,61.0,-100.00,SSE,156,3.0,4.0,63,0.00,,,0.00,0.000000,,2013-08-22 03:45:00,
2013-08-21 22:54:00,74.0,61.0,-100.00,SSE,156,3.0,4.0,63,0.00,,,0.00,0.000000,,2013-08-22 03:54:00,
2013-08-21 23:04:00,74.0,61.0,-100.00,SSE,156,3.0,4.0,63,0.00,,,0.00,0.000000,,2013-08-22 04:04:00,
2013-08-21 23:44:00,75.0,61.0,-100.00,SSE,159,3.0,6.0,61,0.00,,,0.00,0.000000,,2013-08-22 04:44:00,
2013-08-21 23:54:00,75.0,61.0,-100.00,SSE,159,3.0,6.0,61,0.00,,,0.00,0.000000,,2013-08-22 04:54:00,